Sheldon, IA

8:28 AM CDT on May 30, 2017 (GMT -0500)
Sheldon Municipal

Weather History for KSHL - April, 2014

Change the Weather History Date:

Saturday, April 19, 2014

  Actual Average Record
Temperature  
Mean Temperature 60 °F -  
Max Temperature 73 °F 61 °F 90 °F (1987)
Min Temperature 48 °F 38 °F 15 °F (1988)
Degree Days  
Heating Degree Days 4    
Growing Degree Days 10 (Base 50)    
Moisture  
Dew Point 43 °F    
Average Humidity 54    
Maximum Humidity 76    
Minimum Humidity 38    
Precipitation  
Precipitation 0.00 in - - ()
Sea Level Pressure  
Sea Level Pressure 29.99 in    
Wind  
Wind Speed 18 mph (South)    
Max Wind Speed 31 mph    
Max Gust Speed 38 mph    
Visibility 10 miles    
Events      
Averages and records for this station are not official NWS values.
T = Trace of Precipitation, MM = Missing Value Source: NWS Daily Summary

Daily Weather History Graph

Daily Weather History Graph

Search for Another Location

Airport or City:

Trip Planner

Search our weather history database for the weather conditions in past years. The results will help you decide how hot, cold, wet, or windy it might be!

Date:

Astronomy

Apr. 19, 2014 Rise Set
Actual Time 6:34 AM CDT 8:10 PM CDT
Civil Twilight 6:04 AM CDT 8:40 PM CDT
Nautical Twilight 5:28 AM CDT 9:17 PM CDT
Astronomical Twilight 4:49 AM CDT 9:56 PM CDT
Moon No Moon Rise 9:50 AM CDT (4/19)
Length of Visible Light 14h 36m
Length of Day
13h 36m
Waning Gibbous, 78% of the Moon is Illuminated
Apr 19
Waning Gibbous
Apr 22
Last Quarter
Apr 29
New
May 6
First Quarter
May 14
Full

Hourly Weather History & Observations

Time (CDT) Temp. Dew Point Humidity Pressure Visibility Wind Dir Wind Speed Gust Speed Precip Events Conditions
12:15 AM 53.6 °F 35.6 °F 51% 30.01 in 10.0 mi SSE 19.6 mph 26.5 mph N/A   Overcast
12:35 AM 51.8 °F 37.4 °F 58% 30.01 in 10.0 mi SSE 19.6 mph 26.5 mph N/A   Overcast
12:55 AM 51.8 °F 37.4 °F 58% 30.00 in 10.0 mi SSE 19.6 mph 26.5 mph N/A   Overcast
1:15 AM 51.8 °F 37.4 °F 58% 29.99 in 10.0 mi SSE 23.0 mph - N/A   Overcast
1:35 AM 51.8 °F 37.4 °F 58% 29.98 in 10.0 mi SSE 24.2 mph 29.9 mph N/A   Overcast
1:55 AM 51.8 °F 37.4 °F 58% 29.98 in 10.0 mi SSE 23.0 mph 29.9 mph N/A   Overcast
2:15 AM 51.8 °F 37.4 °F 58% 29.98 in 10.0 mi SSE 20.7 mph 27.6 mph N/A   Overcast
2:35 AM 51.8 °F 37.4 °F 58% 29.97 in 10.0 mi SSE 21.9 mph 28.8 mph N/A   Scattered Clouds
2:55 AM 51.8 °F 39.2 °F 62% 29.98 in 10.0 mi SSE 20.7 mph - N/A   Clear
3:15 AM 51.8 °F 39.2 °F 62% 29.97 in 10.0 mi South 21.9 mph - N/A   Clear
3:35 AM 51.8 °F 39.2 °F 62% 29.97 in 10.0 mi SSE 21.9 mph 29.9 mph N/A   Clear
3:55 AM 51.8 °F 39.2 °F 62% 29.97 in 10.0 mi SSE 20.7 mph 27.6 mph N/A   Clear
4:15 AM 51.8 °F 39.2 °F 62% 29.97 in 10.0 mi South 19.6 mph 28.8 mph N/A   Clear
4:35 AM 51.8 °F 39.2 °F 62% 29.98 in 10.0 mi SSE 19.6 mph 25.3 mph N/A   Partly Cloudy
4:55 AM 50.0 °F 39.2 °F 66% 29.99 in 10.0 mi SSE 17.3 mph - N/A   Mostly Cloudy
5:15 AM 50.0 °F 39.2 °F 66% 30.01 in 10.0 mi SSE 13.8 mph 20.7 mph N/A   Overcast
5:35 AM 48.2 °F 39.2 °F 71% 30.01 in 10.0 mi SSE 16.1 mph - N/A   Mostly Cloudy
5:55 AM 50.0 °F 41.0 °F 71% 30.01 in 10.0 mi SSE 16.1 mph - N/A   Mostly Cloudy
6:15 AM 48.2 °F 39.2 °F 71% 30.01 in 10.0 mi SSE 15.0 mph - N/A   Mostly Cloudy
6:35 AM 48.2 °F 41.0 °F 76% 30.01 in 10.0 mi SSE 18.4 mph - N/A   Partly Cloudy
6:55 AM 48.2 °F 41.0 °F 76% 30.00 in 10.0 mi SSE 19.6 mph - N/A   Clear
7:15 AM 48.2 °F 41.0 °F 76% 30.01 in 10.0 mi SSE 20.7 mph - N/A   Clear
7:35 AM 50.0 °F 41.0 °F 71% 30.03 in - SSE 15.0 mph - N/A   Clear
7:55 AM 51.8 °F 41.0 °F 67% 30.01 in 10.0 mi SSE 19.6 mph - N/A   Clear
8:15 AM 51.8 °F 41.0 °F 67% 30.01 in 10.0 mi SSE 23.0 mph - N/A   Clear
8:35 AM 51.8 °F 41.0 °F 67% 30.00 in 10.0 mi SSE 21.9 mph 29.9 mph N/A   Clear
8:55 AM 55.4 °F 41.0 °F 58% 29.99 in 10.0 mi SSE 24.2 mph 33.4 mph N/A   Clear
9:15 AM 59.0 °F 41.0 °F 51% 29.99 in 10.0 mi South 24.2 mph 31.1 mph N/A   Clear
9:35 AM 60.8 °F 41.0 °F 48% 29.99 in 10.0 mi South 26.5 mph 33.4 mph N/A   Clear
9:55 AM 62.6 °F 42.8 °F 48% 29.99 in 10.0 mi South 25.3 mph 33.4 mph N/A   Clear
10:15 AM 64.4 °F 42.8 °F 45% 29.98 in 10.0 mi SSW 31.1 mph 38.0 mph N/A   Clear
10:35 AM 66.2 °F 44.6 °F 46% 29.99 in 10.0 mi SSW 26.5 mph 35.7 mph N/A   Clear
10:55 AM 66.2 °F 44.6 °F 46% 29.99 in 10.0 mi SSW 26.5 mph 36.8 mph N/A   Partly Cloudy
11:15 AM 66.2 °F 44.6 °F 46% 30.00 in 10.0 mi SSW 25.3 mph 33.4 mph N/A   Partly Cloudy
11:35 AM 66.2 °F 44.6 °F 46% 30.00 in 10.0 mi SSW 23.0 mph 32.2 mph N/A   Clear
11:55 AM 68.0 °F 46.4 °F 46% 29.99 in 10.0 mi SSW 18.4 mph 28.8 mph N/A   Clear
12:15 PM 68.0 °F 46.4 °F 46% 29.99 in 10.0 mi SW 18.4 mph 26.5 mph N/A   Scattered Clouds
12:35 PM 69.8 °F 46.4 °F 43% 29.99 in 10.0 mi SW 18.4 mph 27.6 mph N/A   Scattered Clouds
12:55 PM 69.8 °F 46.4 °F 43% 29.99 in 10.0 mi SW 18.4 mph 25.3 mph N/A   Partly Cloudy
1:15 PM 71.6 °F 46.4 °F 41% 29.99 in 10.0 mi SW 16.1 mph 24.2 mph N/A   Partly Cloudy
1:35 PM 71.6 °F 46.4 °F 41% 29.99 in 10.0 mi WSW 16.1 mph 24.2 mph N/A   Scattered Clouds
1:55 PM 71.6 °F 46.4 °F 41% 29.98 in 10.0 mi SW 19.6 mph 28.8 mph N/A   Partly Cloudy
2:15 PM 71.6 °F 46.4 °F 41% 29.98 in 10.0 mi SW 12.7 mph 26.5 mph N/A   Partly Cloudy
2:35 PM 71.6 °F 46.4 °F 41% 29.98 in 10.0 mi SW 15.0 mph 23.0 mph N/A   Scattered Clouds
2:55 PM 73.4 °F 46.4 °F 38% 29.98 in 10.0 mi SSW 17.3 mph 26.5 mph N/A   Mostly Cloudy
3:15 PM 73.4 °F 46.4 °F 38% 29.97 in 10.0 mi SW 12.7 mph 25.3 mph N/A   Mostly Cloudy
3:35 PM 73.4 °F 48.2 °F 41% 29.97 in 10.0 mi SW 15.0 mph 23.0 mph N/A   Scattered Clouds
3:55 PM 73.4 °F 48.2 °F 41% 29.97 in 10.0 mi SW 15.0 mph - N/A   Mostly Cloudy
4:15 PM 73.4 °F 48.2 °F 41% 29.96 in 10.0 mi SW 13.8 mph 20.7 mph N/A   Mostly Cloudy
4:35 PM 71.6 °F 48.2 °F 43% 29.96 in 10.0 mi WSW 16.1 mph - N/A   Mostly Cloudy
4:55 PM 71.6 °F 48.2 °F 43% 29.97 in 10.0 mi WSW 12.7 mph - N/A   Overcast
5:15 PM 71.6 °F 48.2 °F 43% 29.97 in 10.0 mi WSW 11.5 mph - N/A   Overcast
5:35 PM 71.6 °F 48.2 °F 43% 29.96 in 10.0 mi West 13.8 mph - N/A   Overcast
5:55 PM 71.6 °F 48.2 °F 43% 29.97 in 10.0 mi West 11.5 mph - N/A   Overcast
6:15 PM 69.8 °F 48.2 °F 46% 29.97 in 10.0 mi West 9.2 mph - N/A   Overcast
6:35 PM 69.8 °F 48.2 °F 46% 29.97 in 10.0 mi West 6.9 mph - N/A   Overcast
6:55 PM 69.8 °F 48.2 °F 46% 29.97 in 10.0 mi West 5.8 mph - N/A   Overcast
7:15 PM 68.0 °F 48.2 °F 49% 29.97 in 10.0 mi West 4.6 mph - N/A   Overcast
7:35 PM 68.0 °F 42.8 °F 40% 29.97 in 10.0 mi North 12.7 mph - N/A   Overcast
7:55 PM 64.4 °F 42.8 °F 45% 29.98 in 10.0 mi North 6.9 mph - N/A   Overcast
8:15 PM 64.4 °F 42.8 °F 45% 29.98 in 9.0 mi North 6.9 mph - N/A   Overcast
8:35 PM 62.6 °F 42.8 °F 48% 29.99 in 10.0 mi North 8.1 mph - N/A   Overcast
8:55 PM 60.8 °F 42.8 °F 52% 29.99 in 10.0 mi NNE 8.1 mph - N/A   Overcast
9:15 PM 62.6 °F 44.6 °F 52% 29.98 in 10.0 mi ENE 9.2 mph - N/A   Overcast
9:35 PM 60.8 °F 44.6 °F 55% 29.99 in 10.0 mi ENE 8.1 mph - N/A   Overcast
9:55 PM 60.8 °F 46.4 °F 59% 29.99 in 10.0 mi ENE 6.9 mph - N/A   Overcast
10:15 PM 60.8 °F 46.4 °F 59% 30.00 in 10.0 mi ENE 8.1 mph - N/A   Overcast
10:35 PM 60.8 °F 46.4 °F 59% 30.00 in 10.0 mi ENE 6.9 mph - N/A   Overcast
10:55 PM 59.0 °F 46.4 °F 63% 30.01 in 10.0 mi North 8.1 mph - N/A   Overcast
11:15 PM 59.0 °F 46.4 °F 63% 30.00 in 10.0 mi NE 9.2 mph - N/A   Overcast
11:35 PM 57.2 °F 46.4 °F 67% 30.01 in 10.0 mi NNE 9.2 mph - N/A   Overcast
11:55 PM 57.2 °F 46.4 °F 67% 30.01 in 10.0 mi NE 9.2 mph - N/A   Overcast